Location: Espol
(51.7005°N, 9.7822°E)
Time: 01:03:12
(UTC+00:00)

Daily predictions for brighter satellites

Satellite Brightness Start Highest point End
(mag) Time Altitude Azimuth Time Altitude Azimuth Time Altitude Azimuth
Cosmos 2333 Rocket 4.3 01:57:28 22° NE 01:57:28 22° NE 01:59:40 10° NE
CENTAUR R/B 4.1 02:05:13 34° N 02:05:13 34° N 02:11:35 10° ENE
ACS3 Solar Sail 3.3 01:59:33 10° NNE 02:03:45 31° ENE 02:03:45 31° ENE
USA 234 4.4 02:07:53 10° ESE 02:11:31 37° ESE 02:11:31 37° ESE
Cosmos 2360 Rocket 3.9 02:17:23 29° ENE 02:17:23 29° ENE 02:20:22 10° NE
Cosmos 2322 Rocket 3.9 02:17:43 29° NE 02:17:43 29° NE 02:20:35 10° NE
SL-16 R/B 4.0 02:24:11 27° NNE 02:24:11 27° NNE 02:26:37 10° NNE
Cosmos 1943 Rocket 4.1 02:24:45 24° NNE 02:25:17 24° NE 02:29:43 10° E
ADEOS Rocket 3.5 02:32:28 10° NNE 02:38:45 64° E 02:38:45 64° E
CZ-2C R/B 4.3 02:36:53 10° NE 02:41:06 27° E 02:42:20 24° ESE
BREEZE-M DEB (TANK) 4.5 02:53:28 66° SW 02:53:51 66° SSW 03:16:21 10° SE
Cosmos 2219 Rocket 2.9 02:55:06 51° E 02:55:06 51° E 03:00:08 10° NE
USA 59 Rocket 2.8 03:05:02 11° E 03:05:02 11° E 03:05:12 10° E
CZ-2D R/B 4.2 03:13:11 10° N 03:14:24 16° N 03:14:24 16° N
USA 267 3.3 03:12:41 10° ENE 03:19:14 73° SSE 03:20:18 61° SSW
Cosmos 2333 4.2 03:21:23 73° NNE 03:21:23 73° NNE 03:26:38 10° NNE
Cosmos 2150 Rocket 4.1 03:23:19 70° NE 03:23:19 70° NE 03:28:03 10° NNE
Cosmos 2228 Rocket 3.8 03:26:01 50° E 03:26:01 50° E 03:30:15 10° NNE
Cosmos 1980 Rocket 4.1 03:27:56 16° NNW 03:27:56 16° NNW 03:30:25 10° NNE
Cosmos 1269 Rocket 4.1 03:29:01 62° N 03:29:48 73° ENE 03:35:05 10° SSE
H-2A R/B 3.4 03:25:50 10° N 03:28:05 26° N 03:28:05 26° N
Cosmos 2278 Rocket 2.9 03:29:48 27° NNW 03:32:45 53° NE 03:38:16 10° SE
USA 238 DEB 3.9 03:33:04 47° NW 03:33:24 48° NNW 03:40:12 10° NE
USA 238 3.9 03:33:10 48° NW 03:33:30 48° NNW 03:40:19 10° NE
Cosmos 2173 Rocket 4.1 03:30:35 10° N 03:36:42 71° ENE 03:42:45 10° SSE
Cosmos 2333 Rocket 2.8 03:39:31 41° NNW 03:39:31 41° NNW 03:44:07 10° NNE
ADEOS II 3.9 03:38:14 10° N 03:39:55 18° NNW 03:39:55 18° NNW
Cosmos 1153 Rocket 4.3 03:39:06 10° NNW 03:45:13 67° W 03:51:22 10° S
COSMOS 2455 3.0 03:45:06 54° NW 03:45:16 54° NW 03:51:13 10° NNE
Lacrosse 5 rocket 2.7 03:46:58 28° NE 03:46:58 28° NE 03:48:47 10° ENE
Cosmos 1939 Rocket 3.7 03:42:45 10° NNE 03:46:30 46° E 03:48:48 21° SSE
Cosmos 2298 Rocket 3.9 03:46:57 72° WNW 03:47:04 72° WNW 03:52:25 10° NNE
ACS3 Solar Sail 1.9 03:42:24 10° N 03:47:53 51° WNW 03:47:53 51° WNW
Cosmos 2369 Rocket 4.4 03:45:34 10° NNW 03:49:37 20° NNE 03:53:41 10° ENE
Resurs 1-4 Rocket 4.2 03:47:18 10° N 03:48:13 13° NNW 03:48:13 13° NNW
BlueWalker 3 3.4 03:53:51 27° SSE 03:53:51 27° SSE 03:55:47 10° SE
CENTAUR R/B 4.0 03:52:18 22° NW 03:56:49 41° NNE 04:05:05 10° E
USA 234 3.6 03:51:37 10° SSE 03:57:49 44° SW 03:58:53 41° WSW
Cosmos 2123 Rocket 4.5 03:52:55 10° S 03:59:00 61° E 04:05:06 10° NNE
Cosmos 2360 Rocket 2.6 03:59:08 42° NW 03:59:08 42° NW 04:04:27 10° NNE
Cosmos 2322 Rocket 2.8 03:59:31 38° NW 03:59:31 38° NW 04:04:38 10° NNE
Helios 1A Rocket 3.6 03:57:46 10° SE 04:01:01 43° ENE 04:02:41 24° N
Gbstr 26 Del rocket 4.3 03:59:15 29° SSW 04:01:17 44° SSE 04:06:52 10° ENE
Cosmos 44 Rocket 3.4 04:05:02 56° W 04:05:38 60° SW 04:10:41 10° SSE
SL-16 R/B 3.4 04:06:02 26° NNW 04:06:02 26° NNW 04:10:25 10° NNE
Cosmos 2016 Rocket 4.2 04:01:34 10° N 04:07:58 74° ENE 04:14:20 10° SSE
Cosmos 1943 Rocket 2.0 04:06:17 24° NNW 04:09:47 90° SW 04:15:18 10° SSE
H-2A R/B 3.2 04:07:45 10° N 04:11:15 64° NW 04:11:15 64° NW
Okean 1-7 3.0 04:13:10 54° NW 04:13:10 54° NW 04:16:57 10° N
Meteor 2-14 Rocket 4.3 04:06:43 10° SSW 04:12:47 70° WNW 04:18:53 10° N
Cosmos 1862 Rocket 4.3 04:15:09 35° NNW 04:15:09 35° NNW 04:18:03 10° N
ARGOS 3.2 04:08:45 10° N 04:14:01 53° WNW 04:16:18 32° SW
PAYLOAD A 4.0 04:09:30 10° N 04:14:54 68° WNW 04:20:11 10° SSW
NOSS 2-1 (C) 3.3 04:14:58 48° S 04:15:32 57° SE 04:18:30 10° NE
Cosmos 1908 Rocket 3.4 04:11:13 10° NNW 04:15:41 82° W 04:20:06 10° S
Cosmos 1140 Rocket 3.4 04:15:56 36° NW 04:17:44 56° WSW 04:22:42 10° S
CZ-2C R/B 2.6 04:14:34 10° N 04:19:23 52° WNW 04:21:32 31° SW
NOSS 2-1 (D) 2.9 04:19:05 55° S 04:19:34 67° SE 04:22:33 10° NE
Timation 2 Rocket 4.0 04:14:49 19° NW 04:19:42 66° WSW 04:26:02 10° SSE
Cosmos 1300 Rocket 3.8 04:16:06 10° N 04:20:27 67° ENE 04:24:45 10° SSE
ADEOS Rocket 3.9 04:18:32 10° N 04:24:07 33° WNW 04:25:40 30° W
Cosmos 1809 Rocket 4.4 04:18:48 10° SSW 04:24:47 56° WNW 04:30:48 10° N
Cosmos 2061 Rocket 4.3 04:21:48 10° N 04:28:01 70° ENE 04:34:11 10° SSE
NOSS 3-1 (C) 3.0 04:27:25 23° SW 04:30:32 89° NNW 04:36:30 10° NE
Iridium 4 Rocket 2.9 04:26:31 10° N 04:30:57 89° WNW 04:35:07 10° S
Cosmos 2100 Rocket 4.1 04:25:23 10° NNW 04:31:16 49° W 04:37:08 10° SSW
SJ 16-02 2.8 04:27:53 10° N 04:31:53 35° ENE 04:35:50 10° SE
Cosmos 1190 Rocket 4.5 04:32:27 10° NNW 04:37:43 63° ENE 04:42:55 10° SE
Cosmos 2219 Rocket 2.8 04:36:50 29° W 04:38:48 37° NW 04:44:03 10° NNE
IRS-1D 3.4 04:34:29 10° NNE 04:39:32 88° ESE 04:44:27 10° SSW
SL-24 R/B - RUBIN 2 4.2 04:39:23 28° W 04:41:44 47° NW 04:46:24 10° NE
NOSS 0 Rocket 4.0 04:38:49 10° SSW 04:44:57 80° ESE 04:51:09 10° NE
Cosmos 1869 4.1 04:43:30 10° N 04:46:53 45° ENE 04:50:15 10° SSE
COSMOS 2428 2.7 04:42:45 10° SW 04:48:25 68° WNW 04:54:07 10° NNE
Cosmos 371 Rocket 4.1 04:45:53 10° NNW 04:50:37 50° ENE 04:55:20 10° SE
SL-08 RB Rocket 4.4 04:46:53 10° N 04:50:55 32° WNW 04:53:29 18° WSW
USA 59 Rocket -0.8 04:50:47 33° WSW 04:51:53 54° NW 04:54:46 10° NE
Cosmos 1459 Rocket 4.4 04:46:32 10° NNW 04:52:23 40° W 04:58:12 10° SSW
Cosmos 1954 Rocket 4.2 04:50:38 10° NNW 04:55:52 71° ENE 05:01:02 10° SSE
Cosmos 2322 3.8 04:50:23 10° SW 04:55:57 54° NW 05:01:32 10° NNE
FengYun 1-2 T 4.3 04:50:32 10° N 04:55:59 59° WNW 05:01:27 10° SW
COSMO-SKYMED 1 2.4 04:55:12 10° S 04:59:16 58° WSW 05:03:21 10° NNW
Cosmos 407 Rocket 3.7 04:54:47 10° NW 04:59:39 47° WSW 05:04:30 10° S
SKYMED 2 3.9 04:56:30 10° S 05:00:38 43° W 05:04:48 10° NNW
Cosmos 1484 Rocket 3.3 04:58:38 10° NNE 05:02:09 57° ESE 05:05:38 10° S
USA 267 3.4 04:55:47 10° ENE 05:02:14 64° NNW 05:07:39 15° W
Cosmos 1725 Rocket 4.2 04:56:54 10° NNW 05:02:54 47° W 05:08:53 10° SSW
Cosmos 2228 Rocket 4.2 05:03:29 20° W 05:04:22 22° WNW 05:07:48 10° NNW
Cosmos 1980 3.7 05:02:29 10° SSW 05:08:08 88° ESE 05:13:51 10° NNE
H-2A R/B 3.9 05:07:31 10° NNW 05:08:34 11° NW 05:08:34 11° NW
Cosmos 1802 Rocket 4.5 05:04:53 10° NNW 05:10:42 38° W 05:16:25 10° SSW
Cosmos 1656 Rocket 3.9 05:07:14 10° NNW 05:12:56 76° ENE 05:18:38 10° SE
Cosmos 1980 Rocket 4.4 05:12:08 10° NNW 05:13:12 10° N 05:14:18 10° N
Cosmos 2233 Rocket 4.1 05:08:03 10° NNW 05:14:11 55° W 05:20:17 10° SSW
Cosmos 1400 Rocket 4.2 05:10:47 10° N 05:14:19 37° ENE 05:17:47 10° SE
NOSS 3-1 (A) 3.1 05:09:52 10° SW 05:14:41 85° SE 05:20:39 10° NE
Cosmos 2278 Rocket 2.9 05:11:40 10° NW 05:16:37 33° WSW 05:21:36 10° S
Lacrosse 4 Rocket 3.8 05:14:53 10° N 05:16:47 13° NNE 05:18:39 10° NE
Cosmos 2251 Rocket 3.6 05:13:17 10° NNW 05:18:32 59° WSW 05:23:47 10° S
Cosmos 1703 Rocket 4.2 05:14:44 10° SW 05:18:41 33° WNW 05:22:42 10° N
Cosmos 304 Rocket 3.8 05:14:11 10° NNW 05:18:59 85° ENE 05:23:45 10° SSE
Cosmos 1939 Rocket 4.1 05:17:19 10° NNW 05:20:11 20° WNW 05:23:03 10° WSW
NOSS 2-1 (E) 3.2 05:18:52 12° WSW 05:21:44 41° NW 05:24:38 10° NE
Lacrosse 5 rocket 1.9 05:20:39 15° WNW 05:23:00 32° N 05:26:03 10° ENE
Cosmos 2237 Rocket 2.2 05:18:46 10° SW 05:24:26 79° WNW 05:30:08 10° NNE
Cosmos 2333 Rocket 3.9 05:21:32 12° WNW 05:24:27 16° NNW 05:27:58 10° NNE
IGS 5A 3.8 05:21:06 10° NNE 05:25:08 68° ESE 05:29:08 10° S
BlueWalker 3 4.1 05:28:16 10° WSW 05:29:09 11° SW 05:30:01 10° SW
Cosmos 2292 Rocket 4.3 05:25:01 10° SW 05:29:11 41° WNW 05:34:32 10° N
ACS3 Solar Sail 3.4 05:27:27 10° NNW 05:29:53 13° NW 05:32:02 11° WNW
Cosmos 2151 Rocket 4.1 05:26:43 10° N 05:31:13 63° ENE 05:35:39 10° SSE
NOSS 7 (E) 4.1 05:29:14 11° NW 05:32:16 84° SW 05:35:33 10° SE
COSMOS 2455 4.2 05:28:15 11° WNW 05:32:32 23° NNW 05:37:14 10° NNE
Helios 1A Rocket 4.1 05:31:46 10° SW 05:33:57 16° W 05:36:09 10° NW
Meteor 1-24 Rocket 4.3 05:28:52 10° SW 05:34:01 33° WNW 05:39:02 10° N
CZ-4 R/B 4.4 05:30:13 10° N 05:34:43 37° WNW 05:39:08 10° SW
Cosmos 2369 Rocket 2.7 05:29:07 10° NNW 05:34:47 64° NE 05:40:26 10° SE
Cosmos 2242 Rocket 3.5 05:30:39 10° S 05:35:02 85° WNW 05:39:28 10° N
Cosmos 1624 Rocket 4.3 05:35:35 10° SSW 05:40:44 74° ESE 05:45:56 10° NNE
Cosmos 968 Rocket 3.9 05:36:01 10° NNW 05:41:14 66° ENE 05:46:27 10° SE
Cosmos 2360 Rocket 3.9 05:41:25 10° WNW 05:44:38 15° NNW 05:47:52 10° N
Cosmos 2322 Rocket 4.0 05:42:00 10° NW 05:45:03 14° NNW 05:48:07 10° N
Cosmos 1420 Rocket 4.0 05:41:17 10° SW 05:46:31 66° WNW 05:51:49 10° NNE
Gbstr 26 Del rocket 3.8 05:42:16 10° WSW 05:47:33 87° SSE 05:54:06 10° E
Cosmos 1674 Rocket 4.2 05:43:38 10° S 05:48:00 63° E 05:52:24 10° NNE
CENTAUR R/B 3.5 05:40:37 10° NW 05:48:37 79° NE 05:57:58 10° SE
ARIANE 5 R/B 3.4 05:44:43 10° NNE 05:49:42 57° ESE 05:54:42 10° S
SL-16 R/B 4.2 05:49:56 10° NNW 05:51:57 12° NNW 05:53:58 10° N
Cosmos 1943 Rocket 3.6 05:49:12 10° WNW 05:52:43 17° W 05:56:12 10° SW
